Weather History for Lake Charles, LA

Change the Weather History Date:

Monday, November 19, 2012

  Actual Average Record
Temperature  
Mean Temperature 56 °F -  
Max Temperature 71 °F 69 °F 82 °F (2001)
Min Temperature 42 °F 53 °F 30 °F (2014)
Degree Days  
Heating Degree Days 8    
Growing Degree Days 6 (Base 50)    
Moisture  
Dew Point 43 °F    
Average Humidity 76    
Maximum Humidity 93    
Minimum Humidity 33    
Precipitation  
Precipitation 0.00 in - - ()
Sea Level Pressure  
Sea Level Pressure 30.25 in    
Wind  
Wind Speed 0 mph (SE)    
Max Wind Speed 5 mph    
Max Gust Speed -    
Visibility 10 miles    
Events      
Averages and records for this station are not official NWS values.
T = Trace of Precipitation, MM = Missing Value Source: NWS Daily Summary

Daily Weather History Graph

Daily Weather History Graph

Search for Another Location

Airport:

Trip Planner

Search our weather history database for the weather conditions in past years. The results will help you decide how hot, cold, wet, or windy it might be!

Date:

Astronomy

Nov. 19, 2012 Rise Set
Actual Time 6:41 AM CST 5:14 PM CST
Civil Twilight 6:16 AM CST 5:39 PM CST
Nautical Twilight 5:47 AM CST 6:08 PM CST
Astronomical Twilight 5:18 AM CST 6:37 PM CST
Moon 11:54 AM CST (11/19) 11:30 PM CST (11/19)
Length of Visible Light 11h 23m
Length of Day
10h 32m
Waxing Crescent, 41% of the Moon is Illuminated
Nov 19
Waxing Crescent
Nov 20
First Quarter
Nov 28
Full
Dec 6
Last Quarter
Dec 13
New

Hourly Weather History & Observations

Time (CST) Temp. Dew Point Humidity Pressure Visibility Wind Dir Wind Speed Gust Speed Precip Events Conditions
12:15 AM 46.2 °F 41.2 °F 83% 30.28 in 10.0 mi Calm Calm - N/A   Clear
12:35 AM 44.4 °F 40.6 °F 87% 30.28 in 10.0 mi Calm Calm - N/A   Clear
12:55 AM 45.7 °F 41.5 °F 85% 30.28 in 10.0 mi Calm Calm - N/A   Clear
1:15 AM 43.5 °F 39.4 °F 85% 30.27 in 10.0 mi Calm Calm - N/A   Clear
1:35 AM 42.8 °F 40.1 °F 90% 30.26 in 10.0 mi Calm Calm - N/A   Clear
2:15 AM 45.3 °F 40.8 °F 84% 30.27 in 10.0 mi Calm Calm - N/A   Unknown
2:35 AM 44.8 °F 41.2 °F 87% 30.27 in 10.0 mi Calm Calm - N/A   Clear
2:55 AM 44.4 °F 41.2 °F 88% 30.27 in 10.0 mi Calm Calm - N/A   Clear
3:15 AM 43.9 °F 40.8 °F 89% 30.27 in 10.0 mi Calm Calm - N/A   Clear
3:35 AM 43.9 °F 40.5 °F 88% 30.26 in 10.0 mi Calm Calm - N/A   Clear
3:55 AM 43.0 °F 40.1 °F 90% 30.26 in 10.0 mi Calm Calm - N/A   Clear
4:15 AM 43.2 °F 39.9 °F 88% 30.27 in 10.0 mi Calm Calm - N/A   Clear
4:35 AM 43.7 °F 41.0 °F 90% 30.27 in 10.0 mi Calm Calm - N/A   Clear
4:55 AM 43.9 °F 40.8 °F 89% 30.27 in 10.0 mi Calm Calm - N/A   Clear
6:00 AM 42.8 °F 39.2 °F 87% 30.27 in 10.0 mi Calm Calm - N/A   Clear
6:45 AM 42.8 °F 39.2 °F 87% 30.29 in 10.0 mi Calm Calm - N/A   Clear
7:45 AM 48.2 °F 44.6 °F 87% 30.29 in 10.0 mi Calm Calm - N/A   Clear
8:50 AM 57.2 °F 46.4 °F 67% 30.30 in 10.0 mi Calm Calm - N/A   Clear
9:50 AM 62.6 °F 46.4 °F 55% 30.30 in 10.0 mi East 4.6 mph - N/A   Clear
10:50 AM 66.2 °F 44.6 °F 46% 30.30 in 10.0 mi Calm Calm - N/A   Clear
11:45 AM 68.0 °F 44.6 °F 43% 30.28 in 10.0 mi Calm Calm - N/A   Clear
12:50 PM 69.8 °F 42.8 °F 38% 30.24 in 10.0 mi Calm Calm - N/A   Clear
1:50 PM 69.8 °F 41.0 °F 35% 30.22 in 10.0 mi South 4.6 mph - N/A   Clear
2:45 PM 69.8 °F 39.2 °F 33% 30.20 in 10.0 mi Calm Calm - N/A   Clear
3:45 PM 71.6 °F 41.0 °F 33% 30.19 in 10.0 mi Calm Calm - N/A   Clear
4:50 PM 68.0 °F 42.8 °F 40% 30.19 in 10.0 mi Calm Calm - N/A   Scattered Clouds
5:50 PM 60.8 °F 46.4 °F 59% 30.20 in 10.0 mi Calm Calm - N/A   Clear
6:50 PM 57.2 °F 48.2 °F 72% 30.27 in 10.0 mi Calm Calm - N/A   Clear
7:50 PM 53.6 °F 46.4 °F 77% 30.22 in 10.0 mi Calm Calm - N/A   Clear
8:45 PM 51.8 °F 46.4 °F 82% 30.22 in 10.0 mi Calm Calm - N/A   Clear
9:15 PM 51.1 °F 46.6 °F 85% 30.22 in 4.0 mi Calm Calm - N/A   Clear
9:35 PM 50.7 °F 46.9 °F 87% 30.23 in 4.0 mi Calm Calm - N/A   Clear
9:50 PM 51.8 °F 46.4 °F 82% 30.22 in 10.0 mi Calm Calm - N/A   Clear
9:55 PM 51.8 °F 47.3 °F 85% 30.22 in 10.0 mi Calm Calm - N/A   Clear
10:15 PM 50.5 °F 46.8 °F 87% 30.22 in 5.0 mi Calm Calm - N/A   Clear
10:35 PM 49.1 °F 46.6 °F 91% 30.21 in 10.0 mi Calm Calm - N/A   Clear
10:55 PM 48.9 °F 46.0 °F 90% 30.21 in 10.0 mi Calm Calm - N/A   Clear
11:15 PM 48.6 °F 46.4 °F 92% 30.20 in 10.0 mi Calm Calm - N/A   Clear
11:35 PM 47.5 °F 45.5 °F 93% 30.19 in 7.0 mi Calm Calm - N/A   Clear
11:55 PM 48.2 °F 46.0 °F 92% 30.19 in 10.0 mi Calm Calm - N/A   Clear